1501012800.74,54359,19.44,73020.0,4.17,3.45,3.45,0,*71
1501012802.0,54360,19.44,73020.8,4.13,3.41,3.41,0,*7F
1501012803.26,54361,19.44,73016.0,4.13,3.41,3.41,0,*7E
1501012804.52,54362,19.44,73018.3,4.17,3.45,3.45,0,*79
1501012805.78,54363,19.44,73018.5,4.17,3.45,3.45,0,*78
1501012807.04,54364,19.44,73018.8,4.13,3.41,3.33,0,*7E
1501012808.29,54365,19.44,73018.3,4.17,3.37,3.37,0,*7E
1501012809.54,54366,19.44,73018.8,4.17,3.45,3.37,0,*78
1501012810.81,54367,19.44,73018.8,4.13,3.41,3.41,0,*78
1501012812.06,54368,19.44,73020.3,4.17,3.45,3.45,0,*73
1501012813.32,54369,19.44,73020.0,4.17,3.49,3.45,0,*7E
1501012814.58,54370,19.44,73018.0,4.13,3.45,3.41,0,*7A
1501012815.83,54371,19.44,73020.8,4.13,3.45,3.45,0,*7F
1501012817.08,54372,19.44,73016.8,4.13,3.33,3.33,0,*7C
1501012818.32,54373,19.44,73020.3,4.13,3.29,3.33,0,*76
1501012819.57,54374,19.44,73020.3,4.17,3.45,3.45,0,*7E
1501012820.83,54375,19.44,73018.5,4.13,3.41,3.41,0,*7B
1501012822.09,54376,19.44,73018.0,4.13,3.33,3.41,0,*7D
1501012823.35,54377,19.44,73016.5,4.17,3.37,3.45,0,*78
1501012824.6,54378,19.44,73014.3,4.17,3.45,3.45,0,*72
1501012825.86,54379,19.44,73016.5,4.13,3.41,3.33,0,*72
1501012827.12,54380,19.44,73018.3,4.17,3.37,3.45,0,*70
1501012828.38,54381,19.44,73014.0,4.13,3.41,3.41,0,*70
1501012829.61,54382,19.44,73016.8,4.19,3.41,3.33,0,*7C
1501012830.87,54383,19.44,73018.3,4.13,3.41,3.41,0,*72
1501012832.14,54384,19.44,73018.5,4.13,3.41,3.41,0,*75
1501012833.4,54385,19.44,73022.0,4.13,3.41,3.41,0,*74
1501012834.66,54386,19.44,73020.3,4.13,3.41,3.41,0,*77
1501012835.92,54387,19.44,73020.0,4.13,3.41,3.41,0,*76
1501012837.18,54388,19.44,73018.0,4.17,3.45,3.45,0,*7D
1501012838.44,54389,19.44,73022.8,4.13,3.41,3.41,0,*78
1501012839.7,54390,19.44,73018.8,4.13,3.41,3.41,0,*70
1501012840.97,54391,19.44,73018.5,4.13,3.41,3.41,0,*71
1501012842.23,54392,19.44,73020.0,4.13,3.41,3.41,0,*72
1501012843.49,54393,19.44,73018.0,4.13,3.41,3.41,0,*73
1501012844.75,54394,19.44,73022.8,4.13,3.41,3.41,0,*74
1501012846.01,54395,19.44,73020.0,4.13,3.41,3.41,0,*75
1501012847.27,54396,19.44,73022.8,4.13,3.41,3.41,0,*76
1501012848.53,54397,19.44,73018.3,4.17,3.45,3.45,0,*73
1501012849.78,54398,19.44,73022.0,4.17,3.49,3.37,0,*75
1501012851.04,54399,19.44,73016.0,4.13,3.45,3.41,0,*7D
1501012852.3,54400,19.44,73018.8,4.13,3.45,3.45,0,*7E
1501012853.55,54401,19.44,73022.0,4.13,3.45,3.45,0,*7F
1501012854.81,54402,19.44,73018.0,4.13,3.45,3.45,0,*7C
1501012856.06,54403,19.44,73020.5,4.13,3.33,3.45,0,*7C
1501012857.32,54404,19.44,73020.8,4.13,3.41,3.45,0,*7E
1501012858.57,54405,19.44,73020.8,4.17,3.45,3.49,0,*73
1501012859.83,54406,19.44,73020.0,4.13,3.41,3.45,0,*7C
1501012861.09,54407,19.44,73020.5,4.13,3.41,3.49,0,*71
1501012862.35,54408,19.44,73022.5,4.13,3.41,3.45,0,*72
1501012863.61,54409,19.44,73020.3,4.13,3.41,3.45,0,*73
1501012864.86,54410,19.44,73022.0,4.13,3.45,3.45,0,*7F
1501012866.12,54411,19.44,73020.8,4.13,3.45,3.45,0,*7E
1501012867.37,54412,19.44,73018.5,4.13,3.45,3.45,0,*7D
1501012868.63,54413,19.44,73020.5,4.13,3.45,3.45,0,*7C
1501012869.89,54414,19.44,73020.0,4.13,3.45,3.45,0,*7B
1501012871.14,54415,19.44,73022.3,4.13,3.45,3.45,0,*7A
1501012872.39,54416,19.44,73022.3,4.17,3.53,3.49,0,*76
1501012873.65,54417,19.44,73022.5,4.13,3.45,3.45,0,*78
1501012874.9,54418,19.44,73018.0,4.13,3.45,3.49,0,*7B
1501012876.15,54419,19.44,73022.5,4.13,3.49,3.45,0,*7A
1501012877.41,54420,19.44,73020.3,4.13,3.49,3.45,0,*70
1501012878.66,54421,19.44,73022.5,4.13,3.45,3.45,0,*7D
1501012879.92,54422,19.44,73018.8,4.17,3.49,3.49,0,*7A
1501012881.17,54423,19.44,73018.5,4.13,3.45,3.45,0,*7F
1501012882.43,54424,19.44,73018.5,4.13,3.41,3.41,0,*78
1501012883.69,54425,19.44,73018.8,4.17,3.45,3.37,0,*78
1501012884.94,54426,19.44,73018.5,4.13,3.33,3.33,0,*7A
1501012886.19,54427,19.44,73020.3,4.13,3.33,3.41,0,*7E
1501012887.46,54428,19.44,73020.3,4.13,3.41,3.41,0,*74
1501012888.71,54429,19.44,73020.0,4.13,3.45,3.41,0,*71
1501012889.97,54430,19.44,73018.5,4.13,3.45,3.41,0,*79
1501012891.23,54431,19.44,73020.3,4.17,3.49,3.45,0,*74
1501012892.48,54432,19.44,73016.8,4.13,3.45,3.45,0,*7F
1501012893.74,54433,19.44,73020.8,4.17,3.49,3.49,0,*7A
1501012894.99,54434,19.44,73020.0,4.13,3.45,3.45,0,*79
1501012896.22,54435,19.44,73016.8,4.13,3.55,3.49,0,*75
1501012897.47,54436,19.44,73018.3,4.13,3.49,3.49,0,*7B
1501012898.72,54437,19.44,73020.8,4.13,3.45,3.45,0,*7A
1501012899.97,54438,19.44,73016.0,4.13,3.49,3.49,0,*75
1501012901.23,54439,19.44,73022.3,4.13,3.45,3.45,0,*74
1501012902.48,54440,19.44,73022.3,4.13,3.49,3.49,0,*7A
1501012903.73,54441,19.44,73020.0,4.17,3.53,3.53,0,*7F
1501012904.97,54442,19.44,73018.3,4.17,3.53,3.53,0,*7C
1501012906.23,54443,19.44,73016.8,4.17,3.45,3.49,0,*71
1501012907.48,54444,19.44,73020.8,4.13,3.45,3.49,0,*72
1501012908.73,54445,19.44,73020.3,4.17,3.53,3.53,0,*7B
1501012909.98,54446,19.44,73018.3,4.17,3.49,3.53,0,*73
1501012911.22,54447,19.44,73020.3,4.17,3.53,3.53,0,*79
1501012912.47,54448,19.44,73020.0,4.13,3.49,3.49,0,*72
1501012913.73,54449,19.44,73018.0,4.13,3.49,3.49,0,*73
1501012914.98,54450,19.44,73018.8,4.17,3.49,3.49,0,*7F
1501012916.23,54451,19.44,73016.0,4.13,3.49,3.49,0,*7A
1501012917.48,54452,19.44,73022.8,4.13,3.49,3.49,0,*79
1501012918.68,54453,19.44,73018.5,4.17,3.59,3.59,0,*7C
1501012919.91,54454,19.44,73016.0,4.13,3.55,3.49,0,*72
1501012921.13,54455,19.44,73018.5,4.13,3.55,3.49,0,*73
1501012922.33,54456,19.44,73020.8,4.17,3.59,3.59,0,*79
1501012923.53,54457,19.44,73020.8,4.17,3.59,3.59,0,*78
1501012924.73,54458,19.44,73020.5,4.17,3.59,3.59,0,*77
1501012925.93,54459,19.44,73016.5,4.13,3.55,3.63,0,*77
1501012927.13,54460,19.44,73018.8,4.17,3.59,3.63,0,*75
1501012928.33,54461,19.44,73020.8,4.13,3.55,3.59,0,*75
1501012929.53,54462,19.44,73018.0,4.17,3.63,3.63,0,*7E
1501012930.72,54463,19.44,73018.5,4.13,3.55,3.55,0,*7B
1501012931.95,54464,19.44,73020.8,4.17,3.59,3.53,0,*72
1501012933.2,54465,19.44,73020.8,4.13,3.49,3.49,0,*7D
1501012934.45,54466,19.44,73018.0,4.17,3.53,3.49,0,*71
1501012935.67,54467,19.44,73018.5,4.17,3.59,3.53,0,*71
1501012936.92,54468,19.44,73020.3,4.17,3.53,3.53,0,*74
1501012938.17,54469,19.44,73022.3,4.17,3.53,3.53,0,*75
1501012939.41,54470,19.44,73020.8,4.17,3.53,3.53,0,*7D
1501012940.66,54471,19.44,73018.5,4.17,3.53,3.53,0,*7C
1501012941.91,54472,19.44,73016.0,4.13,3.49,3.49,0,*7B
1501012943.16,54473,19.44,73020.8,4.17,3.49,3.49,0,*7E
1501012944.42,54474,19.44,73016.8,4.17,3.49,3.49,0,*79
1501012945.67,54475,19.44,73016.8,4.17,3.49,3.49,0,*78
1501012946.92,54476,19.44,73016.5,4.17,3.49,3.49,0,*7B
1501012948.17,54477,19.44,73016.0,4.17,3.53,3.53,0,*7A
1501012949.42,54478,19.44,73018.8,4.17,3.53,3.53,0,*75
1501012950.64,54479,19.44,73018.3,4.13,3.55,3.49,0,*7D
1501012951.87,54480,19.44,73022.0,4.17,3.63,3.53,0,*71
1501012953.11,54481,19.44,73020.0,4.17,3.53,3.53,0,*73
1501012954.36,54482,19.44,73018.8,4.17,3.53,3.53,0,*70
1501012955.56,54483,19.44,73018.0,4.17,3.59,3.63,0,*78
1501012956.81,54484,19.44,73016.8,4.17,3.53,3.53,0,*76
1501012958.05,54485,19.44,73016.5,4.17,3.53,3.53,0,*77
1501012959.3,54486,19.44,73018.3,4.17,3.49,3.53,0,*7F
1501012960.55,54487,19.44,73018.0,4.17,3.53,3.49,0,*7E
1501012961.8,54488,19.44,73020.0,4.17,3.53,3.53,0,*7A
1501012963.02,54489,19.44,73018.3,4.19,3.53,3.53,0,*75
1501012964.23,54490,19.44,73018.0,4.19,3.49,3.53,0,*76
1501012965.45,54491,19.44,73018.8,4.19,3.53,3.53,0,*7C
1501012966.67,54492,19.44,73018.5,4.19,3.49,3.53,0,*74
1501012967.92,54493,19.44,73016.0,4.17,3.49,3.49,0,*70
1501012969.17,54494,19.44,73016.8,4.17,3.49,3.53,0,*7C
1501012970.39,54495,19.44,73016.3,4.19,3.49,3.49,0,*78
1501012971.61,54496,19.44,73018.5,4.19,3.49,3.53,0,*70
1501012972.83,54497,19.44,73016.8,4.19,3.49,3.53,0,*71
1501012974.05,54498,19.44,73020.5,4.19,3.53,3.49,0,*7E
1501012975.27,54499,19.44,73016.8,4.19,3.53,3.49,0,*7F
1501012976.49,54500,19.44,73018.3,4.19,3.53,3.53,0,*75
1501012977.71,54501,19.44,73018.8,4.19,3.49,3.53,0,*7F
1501012978.93,54502,19.44,73016.8,4.19,3.53,3.53,0,*77
1501012980.14,54503,19.44,73020.0,4.19,3.49,3.53,0,*7D
1501012981.37,54504,19.44,73020.3,4.19,3.53,3.49,0,*7A
1501012982.59,54505,19.44,73016.0,4.19,3.53,3.49,0,*7B
1501012983.81,54506,19.44,73018.5,4.19,3.49,3.49,0,*73
1501012985.04,54507,19.44,73016.8,4.19,3.49,3.49,0,*72
1501012986.26,54508,19.44,73018.3,4.19,3.49,3.49,0,*7D
1501012987.51,54509,19.44,73018.5,4.21,3.53,3.53,0,*77
1501012988.73,54510,19.44,73016.0,4.19,3.49,3.49,0,*74
1501012989.95,54511,19.44,73016.0,4.19,3.49,3.49,0,*75
1501012991.2,54512,19.44,73016.8,4.17,3.53,3.53,0,*78
1501012992.45,54513,19.44,73014.0,4.17,3.53,3.49,0,*72
1501012993.71,54514,19.44,73020.0,4.17,3.49,3.49,0,*7E
1501012994.93,54515,19.44,73018.0,4.19,3.49,3.49,0,*71
1501012996.15,54516,19.44,73018.0,4.19,3.49,3.49,0,*72
1501012997.38,54517,19.44,73016.5,4.19,3.49,3.49,0,*73
1501012998.6,54518,19.44,73018.3,4.19,3.45,3.45,0,*7C
1501012999.83,54519,19.44,73014.3,4.19,3.45,3.45,0,*7D
1501013001.06,54520,19.44,73014.0,4.19,3.45,3.45,0,*77
1501013002.32,54521,19.44,73016.3,4.17,3.45,3.45,0,*78
1501013003.58,54522,19.44,73016.5,4.17,3.45,3.49,0,*77
1501013004.8,54523,19.44,73014.8,4.19,3.45,3.49,0,*78
1501013006.06,54524,19.44,73016.8,4.17,3.45,3.49,0,*71
1501013007.31,54525,19.44,73018.0,4.17,3.49,3.49,0,*7C
1501013008.54,54526,19.44,73016.5,4.19,3.53,3.49,0,*7A
1501013009.76,54527,19.44,73014.3,4.19,3.53,3.49,0,*7B
1501013010.98,54528,19.44,73016.5,4.19,3.49,3.49,0,*7F
1501013012.2,54529,19.44,73018.5,4.19,3.49,3.53,0,*75
1501013013.42,54530,19.44,73016.5,4.19,3.49,3.49,0,*76
1501013014.65,54531,19.44,73020.0,4.19,3.37,3.49,0,*7E
1501013015.91,54532,19.44,73016.5,4.17,3.45,3.49,0,*76
1501013017.13,54533,19.44,73014.3,4.19,3.45,3.49,0,*79
1501013018.36,54534,19.44,73018.3,4.19,3.53,3.49,0,*79
1501013019.58,54535,19.44,73016.0,4.19,3.49,3.49,0,*73
1501013020.8,54536,19.44,73016.8,4.19,3.49,3.53,0,*7B
1501013021.99,54537,19.44,73016.0,4.21,3.55,3.55,0,*7A
1501013023.24,54538,19.44,73016.0,4.17,3.49,3.53,0,*7B
1501013024.49,54539,19.44,73016.0,4.17,3.53,3.53,0,*71
1501013025.7,54540,19.44,73018.0,4.19,3.53,3.53,0,*71
1501013026.92,54541,19.44,73018.5,4.19,3.53,3.53,0,*70
1501013028.14,54542,19.44,73016.3,4.19,3.53,3.53,0,*73
1501013029.35,54543,19.44,73016.8,4.19,3.53,3.53,0,*72
1501013030.53,54544,19.44,73016.0,4.19,3.59,3.63,0,*7C
1501013031.72,54545,19.44,73020.5,4.19,3.53,3.59,0,*7E
1501013032.91,54546,19.44,73020.3,4.21,3.55,3.55,0,*7C
1501013034.13,54547,19.44,73016.3,4.19,3.49,3.53,0,*7D
1501013035.35,54548,19.44,73020.3,4.19,3.53,3.53,0,*79
1501013036.59,54549,19.44,73018.0,4.21,3.53,3.53,0,*73
1501013037.81,54550,19.44,73016.5,4.19,3.53,3.53,0,*70
1501013039.03,54551,19.44,73020.0,4.19,3.49,3.53,0,*7A
1501013040.25,54552,19.44,73020.0,4.19,3.49,3.49,0,*72
1501013041.48,54553,19.44,73016.3,4.19,3.45,3.49,0,*7F
1501013042.7,54554,19.44,73018.5,4.19,3.49,3.49,0,*74
1501013043.94,54555,19.44,73018.3,4.21,3.53,3.53,0,*7E
1501013045.17,54556,19.44,73016.3,4.19,3.49,3.49,0,*76
1501013046.41,54557,19.44,73016.0,4.21,3.53,3.53,0,*7C
1501013047.66,54558,19.44,73018.0,4.21,3.53,3.53,0,*73
1501013048.9,54559,19.44,73022.8,4.21,3.53,3.53,0,*72
1501013050.12,54560,19.44,73018.5,4.19,3.49,3.45,0,*7F
1501013051.38,54561,19.44,73018.3,4.21,3.41,3.49,0,*71
1501013052.61,54562,19.44,73020.8,4.19,3.45,3.45,0,*71
1501013053.86,54563,19.44,73020.0,4.21,3.49,3.49,0,*7B
1501013055.08,54564,19.44,73020.0,4.19,3.49,3.45,0,*7B
1501013056.3,54565,19.44,73016.8,4.19,3.49,3.53,0,*7D
1501013057.53,54566,19.44,73022.0,4.19,3.49,3.49,0,*75
1501013058.74,54567,19.44,73018.3,4.19,3.49,3.53,0,*7F
1501013059.96,54568,19.44,73020.8,4.21,3.53,3.55,0,*76
1501013061.19,54569,19.44,73016.8,4.19,3.49,3.49,0,*7A
1501013062.4,54570,19.44,73018.3,4.19,3.49,3.53,0,*79
1501013063.63,54571,19.44,73014.8,4.19,3.49,3.49,0,*73
1501013064.86,54572,19.44,73022.0,4.19,3.37,3.45,0,*75
1501013066.11,54573,19.44,73020.8,4.21,3.49,3.41,0,*72
1501013067.34,54574,19.44,73018.0,4.19,3.45,3.45,0,*76
1501013068.56,54575,19.44,73018.5,4.19,3.37,3.37,0,*77
1501013069.79,54576,19.44,73020.3,4.19,3.45,3.45,0,*74
1501013071.02,54577,19.44,73020.3,4.19,3.45,3.45,0,*75
1501013072.25,54578,19.44,73022.8,4.19,3.45,3.45,0,*7A
1501013073.47,54579,19.44,73022.0,4.19,3.45,3.45,0,*7B
1501013074.73,54580,19.44,73020.3,4.21,3.53,3.41,0,*75
1501013075.98,54581,19.44,73020.8,4.21,3.53,3.49,0,*7C
1501013077.2,54582,19.44,73020.8,4.19,3.49,3.45,0,*73
1501013078.45,54583,19.44,73020.8,4.21,3.53,3.49,0,*7E
1501013079.7,54584,19.44,73020.8,4.21,3.53,3.49,0,*79
1501013080.93,54585,19.44,73018.5,4.19,3.49,3.49,0,*78
1501013082.15,54586,19.44,73016.8,4.19,3.49,3.49,0,*7B
1501013083.37,54587,19.44,73018.5,4.19,3.49,3.49,0,*7A
1501013084.62,54588,19.44,73020.0,4.21,3.53,3.53,0,*7E
1501013085.84,54589,19.44,73022.3,4.19,3.49,3.49,0,*74
1501013087.08,54590,19.44,73018.8,4.21,3.53,3.53,0,*77
1501013088.31,54591,19.44,73020.0,4.19,3.45,3.49,0,*71
1501013089.56,54592,19.44,73018.8,4.21,3.41,3.53,0,*76
1501013090.81,54593,19.44,73016.8,4.21,3.49,3.49,0,*74
1501013092.04,54594,19.44,73018.5,4.19,3.45,3.45,0,*78
1501013093.27,54595,19.44,73020.3,4.19,3.45,3.45,0,*79
1501013094.5,54596,19.44,73022.5,4.19,3.45,3.49,0,*76
1501013095.72,54597,19.44,73020.3,4.19,3.45,3.49,0,*77
1501013096.98,54598,19.44,73020.5,4.17,3.45,3.49,0,*76
1501013098.24,54599,19.44,73018.5,4.17,3.45,3.45,0,*7B
1501013099.46,54600,19.44,73018.0,4.19,3.45,3.37,0,*73
1501013100.69,54601,19.44,73016.0,4.19,3.45,3.45,0,*77
1501013101.92,54602,19.44,73016.8,4.19,3.45,3.45,0,*74
1501013103.15,54603,19.44,73018.5,4.19,3.45,3.45,0,*75
1501013104.36,54604,19.44,73018.3,4.19,3.49,3.53,0,*79
1501013105.59,54605,19.44,73016.3,4.19,3.49,3.49,0,*73
1501013106.81,54606,19.44,73018.0,4.19,3.37,3.37,0,*70
1501013108.07,54607,19.44,73018.5,4.21,3.41,3.37,0,*7B
1501013109.29,54608,19.44,73020.3,4.19,3.45,3.33,0,*7F
1501013110.55,54609,19.44,73016.8,4.21,3.49,3.41,0,*7C
1501013111.77,54610,19.44,73016.8,4.19,3.45,3.37,0,*72
1501013113.0,54611,19.44,73020.3,4.19,3.37,3.45,0,*73
1501013114.23,54612,19.44,73018.3,4.19,3.45,3.37,0,*70
1501013115.45,54613,19.44,73018.5,4.19,3.45,3.45,0,*74
1501013116.68,54614,19.44,73018.5,4.19,3.37,3.37,0,*73
1501013117.86,54615,19.44,73016.8,4.19,3.25,3.25,0,*72
1501013119.06,54616,19.44,73016.8,4.19,3.25,3.33,0,*76
1501013120.28,54617,19.44,73016.3,4.19,3.33,3.33,0,*70
1501013121.51,54618,19.44,73020.0,4.19,3.45,3.37,0,*7A
1501013122.73,54619,19.44,73020.8,4.19,3.45,3.37,0,*7B
1501013123.96,54620,19.44,73016.5,4.19,3.45,3.37,0,*71
1501013125.21,54621,19.44,73016.8,4.17,3.37,3.37,0,*7B
1501013126.47,54622,19.44,73018.3,4.17,3.37,3.33,0,*7C
1501013127.72,54623,19.44,73018.3,4.17,3.33,3.33,0,*79
1501013128.98,54624,19.44,73018.3,4.17,3.45,3.45,0,*7E
1501013130.24,54625,19.44,73022.0,4.17,3.37,3.33,0,*7B
1501013131.49,54626,19.44,73016.5,4.17,3.45,3.37,0,*79
1501013132.75,54627,19.44,73016.8,4.17,3.45,3.33,0,*7C
1501013134.0,54628,19.44,73020.3,4.17,3.37,3.37,0,*72
1501013135.26,54629,19.44,73020.5,4.17,3.45,3.45,0,*73
1501013136.52,54630,19.44,73016.5,4.17,3.45,3.45,0,*7B
1501013137.77,54631,19.44,73016.3,4.17,3.45,3.45,0,*7A
1501013139.03,54632,19.44,73020.3,4.17,3.49,3.49,0,*79
1501013140.28,54633,19.44,73020.0,4.17,3.49,3.49,0,*78
1501013141.5,54634,19.44,73020.0,4.19,3.53,3.53,0,*71
1501013142.74,54635,19.44,73020.8,4.17,3.53,3.53,0,*7E
1501013143.99,54636,19.44,73022.0,4.17,3.53,3.53,0,*7D
1501013145.24,54637,19.44,73022.0,4.17,3.53,3.53,0,*7C
1501013146.45,54638,19.44,73020.3,4.19,3.53,3.53,0,*7D
1501013147.68,54639,19.44,73020.5,4.19,3.49,3.49,0,*7C
1501013148.9,54640,19.44,73020.0,4.19,3.53,3.49,0,*79
1501013150.13,54641,19.44,73022.5,4.19,3.49,3.49,0,*73
1501013151.35,54642,19.44,73018.0,4.19,3.49,3.49,0,*70
1501013152.57,54643,19.44,73020.3,4.19,3.49,3.49,0,*71
1501013153.79,54644,19.44,73022.5,4.21,3.55,3.53,0,*7B
1501013155.01,54645,19.44,73022.0,4.19,3.53,3.49,0,*7C
1501013156.24,54646,19.44,73020.5,4.19,3.49,3.49,0,*74
1501013157.46,54647,19.44,73016.8,4.19,3.49,3.49,0,*75
1501013158.68,54648,19.44,73018.8,4.19,3.49,3.49,0,*7A
1501013159.93,54649,19.44,73018.8,4.21,3.49,3.49,0,*70
1501013161.16,54650,19.44,73022.5,4.19,3.45,3.45,0,*73
1501013162.39,54651,19.44,73018.5,4.19,3.45,3.49,0,*7E
1501013163.61,54652,19.44,73016.5,4.19,3.53,3.49,0,*7A
1501013164.84,54653,19.44,73016.0,4.19,3.49,3.49,0,*70
1501013166.06,54654,19.44,73020.0,4.19,3.49,3.49,0,*77
1501013167.29,54655,19.44,73022.5,4.19,3.45,3.45,0,*76
1501013168.55,54656,19.44,73018.0,4.17,3.37,3.45,0,*7E
1501013169.77,54657,19.44,73020.5,4.19,3.37,3.37,0,*74
1501013171.0,54658,19.44,73016.5,4.19,3.45,3.45,0,*7B
1501013172.23,54659,19.44,73020.3,4.19,3.45,3.45,0,*7A
1501013173.45,54660,19.44,73018.0,4.19,3.45,3.37,0,*75
1501013174.68,54661,19.44,73018.5,4.19,3.45,3.45,0,*71
1501013175.9,54662,19.44,73022.3,4.19,3.37,3.37,0,*72
1501013177.13,54663,19.44,73020.0,4.19,3.37,3.37,0,*73
1501013178.35,54664,19.44,73016.0,4.19,3.45,3.45,0,*74
1501013179.58,54665,19.44,73020.0,4.19,3.45,3.37,0,*70
1501013180.81,54666,19.44,73020.0,4.19,3.45,3.45,0,*76
1501013182.03,54667,19.44,73018.5,4.19,3.49,3.45,0,*7B
1501013183.26,54668,19.44,73016.0,4.19,3.49,3.49,0,*78
1501013184.47,54669,19.44,73016.5,4.19,3.53,3.53,0,*79
1501013185.7,54670,19.44,73018.0,4.19,3.49,3.49,0,*71
1501013186.92,54671,19.44,73020.0,4.19,3.49,3.49,0,*70
1501013188.14,54672,19.44,73020.3,4.19,3.49,3.49,0,*73
1501013189.37,54673,19.44,73020.0,4.19,3.49,3.49,0,*72
1501013190.59,54674,19.44,73016.0,4.19,3.53,3.49,0,*7E
1501013191.81,54675,19.44,73020.0,4.19,3.49,3.49,0,*74
1501013193.04,54676,19.44,73018.3,4.19,3.49,3.49,0,*77
1501013194.26,54677,19.44,73022.8,4.19,3.49,3.53,0,*7D
1501013195.48,54678,19.44,73018.0,4.19,3.49,3.49,0,*79
1501013196.7,54679,19.44,73018.0,4.19,3.49,3.49,0,*78
1501013197.96,54680,19.44,73018.5,4.17,3.49,3.49,0,*70
1501013199.18,54681,19.44,73020.0,4.19,3.49,3.49,0,*7F
1501013200.4,54682,19.44,73018.8,4.19,3.49,3.49,0,*7C
1501013201.63,54683,19.44,73016.8,4.19,3.49,3.49,0,*7D
1501013202.87,54684,19.44,73020.0,4.21,3.53,3.53,0,*71
1501013204.09,54685,19.44,73018.8,4.19,3.53,3.49,0,*70
1501013205.32,54686,19.44,73016.5,4.19,3.53,3.49,0,*73
1501013206.54,54687,19.44,73020.8,4.19,3.49,3.49,0,*79
1501013207.76,54688,19.44,73020.0,4.19,3.49,3.49,0,*76
1501013209.02,54689,19.44,73018.5,4.17,3.53,3.49,0,*72
1501013210.24,54690,19.44,73020.8,4.19,3.49,3.49,0,*7F
1501013211.46,54691,19.44,73016.3,4.19,3.49,3.49,0,*7E
1501013212.69,54692,19.44,73020.3,4.19,3.53,3.49,0,*76
1501013213.91,54693,19.44,73018.8,4.19,3.49,3.49,0,*7C
1501013215.13,54694,19.44,73016.3,4.19,3.49,3.49,0,*7B
1501013216.39,54695,19.44,73016.8,4.17,3.49,3.49,0,*74
1501013217.64,54696,19.44,73018.8,4.17,3.49,3.49,0,*77
1501013218.86,54697,19.44,73016.0,4.19,3.49,3.49,0,*78
1501013220.09,54698,19.44,73016.8,4.19,3.49,3.49,0,*77
1501013221.32,54699,19.44,73016.0,4.19,3.45,3.49,0,*7A
1501013222.57,54700,19.44,73018.5,4.17,3.45,3.45,0,*79
1501013223.83,54701,19.44,73016.0,4.17,3.45,3.45,0,*78
1501013225.09,54702,19.44,73016.3,4.17,3.45,3.45,0,*7B
1501013226.34,54703,19.44,73018.8,4.17,3.37,3.37,0,*7A
1501013227.6,54704,19.44,73016.8,4.13,3.41,3.41,0,*79
1501013228.86,54705,19.44,73016.5,4.17,3.45,3.45,0,*7C
1501013230.12,54706,19.44,73018.5,4.17,3.37,3.37,0,*7F
1501013231.37,54707,19.44,73020.0,4.17,3.45,3.45,0,*7E
1501013232.6,54708,19.44,73016.0,4.19,3.45,3.37,0,*7A
1501013233.82,54709,19.44,73016.0,4.19,3.45,3.37,0,*7B
1501013235.05,54710,19.44,73014.5,4.19,3.37,3.45,0,*73
1501013236.27,54711,19.44,73018.5,4.19,3.37,3.37,0,*77
1501013237.53,54712,19.44,73014.8,4.17,3.37,3.45,0,*7F
1501013238.79,54713,19.44,73018.3,4.17,3.45,3.45,0,*7B
1501013240.05,54714,19.44,73016.8,4.17,3.45,3.45,0,*7C
1501013241.3,54715,19.44,73016.3,4.17,3.45,3.45,0,*7D
1501013242.56,54716,19.44,73018.5,4.17,3.45,3.45,0,*7E
1501013243.82,54717,19.44,73018.5,4.17,3.37,3.45,0,*7A
1501013245.07,54718,19.44,73022.5,4.17,3.45,3.37,0,*75
1501013246.33,54719,19.44,73018.0,4.17,3.37,3.33,0,*75
1501013247.58,54720,19.44,73022.0,4.17,3.37,3.37,0,*7B
1501013248.84,54721,19.44,73016.8,4.17,3.45,3.45,0,*7A
1501013250.07,54722,19.44,73018.8,4.19,3.45,3.45,0,*77
1501013251.3,54723,19.44,73022.5,4.19,3.45,3.45,0,*76
1501013252.52,54724,19.44,73022.8,4.19,3.45,3.45,0,*71
1501013253.78,54725,19.44,73018.3,4.17,3.49,3.49,0,*7E
1501013255.03,54726,19.44,73020.3,4.17,3.49,3.49,0,*7D
1501013256.28,54727,19.44,73020.3,4.17,3.49,3.49,0,*7C
1501013257.54,54728,19.44,73018.8,4.17,3.49,3.49,0,*73
1501013258.79,54729,19.44,73018.3,4.17,3.49,3.49,0,*72
1501013260.04,54730,19.44,73022.0,4.17,3.49,3.49,0,*7A
1501013261.29,54731,19.44,73016.8,4.17,3.49,3.53,0,*70
1501013262.54,54732,19.44,73024.3,4.17,3.49,3.53,0,*73
1501013263.79,54733,19.44,73018.5,4.17,3.49,3.49,0,*79
1501013265.04,54734,19.44,73022.5,4.17,3.53,3.49,0,*75
1501013266.29,54735,19.44,73018.0,4.17,3.53,3.53,0,*7F
1501013267.54,54736,19.44,73020.8,4.17,3.53,3.53,0,*7C
1501013268.78,54737,19.44,73022.3,4.17,3.49,3.53,0,*76
1501013270.04,54738,19.44,73020.5,4.17,3.53,3.49,0,*79
1501013271.28,54739,19.44,73022.0,4.17,3.53,3.53,0,*73
1501013272.53,54740,19.44,73016.3,4.17,3.53,3.53,0,*7D
1501013273.75,54741,19.44,73022.0,4.19,3.53,3.53,0,*72
1501013274.96,54742,19.44,73022.5,4.21,3.55,3.53,0,*7C
1501013276.18,54743,19.44,73020.3,4.19,3.49,3.53,0,*7B
1501013277.4,54744,19.44,73020.0,4.19,3.53,3.53,0,*77
1501013278.62,54745,19.44,73020.0,4.19,3.53,3.53,0,*76
1501013279.83,54746,19.38,73016.3,4.19,3.53,3.53,0,*75
1501013281.05,54747,19.44,73020.3,4.21,3.53,3.55,0,*79
1501013282.27,54748,19.44,73020.3,4.19,3.53,3.53,0,*7B
1501013283.49,54749,19.44,73022.8,4.19,3.49,3.53,0,*71
1501013284.7,54750,19.44,73018.5,4.19,3.53,3.53,0,*72
1501013285.92,54751,19.44,73018.3,4.19,3.53,3.53,0,*73
1501013287.11,54752,19.44,73022.8,4.21,3.55,3.55,0,*7B
1501013288.34,54753,19.44,73022.5,4.19,3.49,3.49,0,*71
1501013289.56,54754,19.44,73022.5,4.19,3.49,3.49,0,*76
1501013290.79,54755,19.44,73018.8,4.19,3.49,3.49,0,*77
1501013292.01,54756,19.44,73020.3,4.19,3.49,3.49,0,*74
1501013293.24,54757,19.44,73022.0,4.19,3.49,3.45,0,*79
1501013294.46,54758,19.44,73020.8,4.19,3.49,3.45,0,*76
1501013295.71,54759,19.44,73020.5,4.21,3.53,3.49,0,*7B
1501013296.96,54760,19.44,73020.5,4.17,3.49,3.45,0,*73
1501013298.22,54761,19.44,73022.0,4.17,3.49,3.45,0,*72
1501013299.44,54762,19.44,73020.3,4.19,3.49,3.45,0,*7F
1501013300.68,54763,19.44,73022.8,4.21,3.53,3.53,0,*79
1501013301.91,54764,19.44,73020.3,4.19,3.49,3.49,0,*75
1501013303.13,54765,19.44,73026.0,4.19,3.49,3.53,0,*7F
1501013304.35,54766,19.44,73020.3,4.19,3.49,3.49,0,*77
1501013305.57,54767,19.44,73020.5,4.19,3.49,3.53,0,*7D
1501013306.79,54768,19.44,73022.5,4.19,3.49,3.49,0,*79
1501013308.02,54769,19.44,73020.0,4.19,3.49,3.49,0,*78
1501013309.24,54770,19.44,73020.3,4.19,3.49,3.49,0,*70
1501013310.49,54771,19.44,73020.5,4.21,3.53,3.49,0,*71
1501013311.71,54772,19.44,73020.8,4.19,3.49,3.45,0,*7E
1501013312.96,54773,19.44,73022.3,4.21,3.53,3.49,0,*73
1501013314.19,54774,19.44,73022.0,4.19,3.45,3.37,0,*71
1501013315.41,54775,19.44,73020.3,4.19,3.37,3.45,0,*70
1501013316.64,54776,19.44,73022.0,4.19,3.45,3.45,0,*76
1501013317.87,54777,19.44,73020.5,4.19,3.45,3.45,0,*77
1501013319.1,54778,19.44,73022.5,4.19,3.45,3.45,0,*78
1501013320.33,54779,19.44,73022.0,4.19,3.45,3.45,0,*79
1501013321.56,54780,19.44,73018.5,4.19,3.45,3.49,0,*73
1501013322.78,54781,19.44,73022.5,4.19,3.45,3.49,0,*72
1501013324.01,54782,19.44,73018.0,4.19,3.45,3.49,0,*71
1501013325.24,54783,19.44,73018.8,4.19,3.45,3.49,0,*70
1501013326.46,54784,19.44,73022.0,4.19,3.45,3.37,0,*7E
1501013327.68,54785,19.44,73016.0,4.19,3.33,3.37,0,*7E
1501013328.91,54786,19.44,73016.8,4.19,3.37,3.33,0,*7D
1501013330.17,54787,19.44,73020.8,4.21,3.41,3.37,0,*72
1501013331.36,54788,19.44,73022.3,4.19,3.33,3.25,0,*70
1501013332.57,54789,19.44,73020.8,4.19,3.25,3.33,0,*71
1501013333.82,54790,19.44,73016.5,4.17,3.33,3.33,0,*70
1501013335.08,54791,19.44,73018.5,4.17,3.37,3.33,0,*75
1501013336.34,54792,19.44,73016.8,4.17,3.37,3.45,0,*77
1501013337.59,54793,19.44,73016.5,4.17,3.37,3.37,0,*73
1501013338.85,54794,19.44,73018.5,4.17,3.45,3.45,0,*74
1501013340.1,54795,19.44,73018.3,4.17,3.45,3.45,0,*75